Lapse_Rate
4.1 5.1 5.8 5.6 4.3 4.1 3.8 3.3 3.0 3.5 2.9 2.4 2.0 1.5 1.3 0.5 0.2 -0.0 0.8 0.9 1.2 0.9 0.9 1.0 0.9 1.0 2.0 2.3 2.6 2.2 3.2 2.9 4.1 5.0 5.2 5.2 4.7 4.8 4.8 4.6 5.0 5.1 5.0
3.9 5.6 5.5 4.8 4.4 4.0 3.7 3.6 3.2 2.9 3.3 3.7 3.3 1.8 1.4 0.9 1.3 0.3 0.4 0.9 1.2 0.9 1.1 1.2 1.5 1.4 1.4 1.4 2.0 2.6 2.2 3.1 3.4 5.2 5.2 6.6 6.3 5.6 5.0 4.9 5.2 5.0 4.7
4.0 5.2 6.3 5.2 4.7 4.1 3.4 3.6 2.6 2.4 3.2 3.9 2.9 1.4 0.8 0.8 1.3 0.9 0.8 0.4 0.7 0.6 0.8 0.8 1.0 0.9 1.4 1.3 1.7 2.4 3.0 2.9 2.3 2.9 4.9 4.9 6.6 6.1 5.3 5.0 5.0 5.1 5.2
4.6 5.7 5.8 6.2 4.7 4.2 3.9 3.3 3.3 1.7 3.0 3.4 3.8 3.0 2.6 1.4 1.5 1.7 1.1 0.5 0.7 0.7 0.4 0.5 0.8 0.9 0.9 1.0 1.5 2.0 2.8 2.9 3.1 2.1 2.4 2.3 3.7 6.0 6.5 5.4 4.8 4.7 4.9
4.3 5.5 5.9 5.5 5.1 5.0 3.8 4.1 4.2 3.8 2.1 3.1 3.3 3.5 3.7 2.5 1.8 0.7 0.7 1.1 0.9 0.9 0.5 0.4 0.4 0.7 0.6 1.5 1.5 1.2 1.9 2.9 3.0 3.2 1.9 2.4 2.7 2.8 4.6 6.2 5.3 4.6 4.0
3.3 5.0 6.0 7.4 5.6 4.5 4.5 4.0 3.7 2.9 2.7 2.0 2.7 3.8 3.8 3.4 1.3 1.2 1.5 1.4 1.3 1.0 0.9 0.6 0.5 0.7 0.5 0.7 1.1 1.5 1.8 2.2 2.7 2.9 3.0 3.4 3.9 3.5 3.8 3.9 4.1 5.6 4.3
3.0 4.3 5.5 7.1 6.1 4.4 4.1 4.1 4.0 3.6 2.2 2.4 1.9 3.7 4.0 3.6 3.1 2.0 1.7 1.0 1.1 0.6 0.5 0.4 0.0 0.4 0.4 0.4 0.7 0.9 1.1 1.3 1.8 2.3 2.9 3.1 3.6 3.1 3.2 3.8 3.2 4.6 4.5
3.4 3.0 4.7 6.2 6.5 4.9 4.8 4.0 4.1 3.5 2.2 2.1 1.7 3.5 4.2 4.0 3.3 3.0 3.0 1.8 1.9 1.6 1.4 0.6 0.1 0.3 0.3 0.7 0.7 1.1 1.3 1.3 1.8 2.0 2.2 2.8 2.9 2.8 3.2 3.7 3.4 4.0 4.0
3.2 3.1 3.8 6.0 6.3 5.1 4.5 3.9 4.4 3.4 2.6 1.9 4.3 3.6 3.4 3.9 3.6 3.4 3.6 3.1 2.6 1.9 1.1 0.4 0.2 0.2 0.5 0.5 0.6 1.2 1.2 1.2 1.4 1.6 1.8 2.5 2.5 2.7 3.2 3.5 4.2 5.1 4.6
2.8 2.8 2.9 4.3 5.6 6.7 5.3 4.0 3.7 4.5 2.4 2.6 2.9 3.6 3.7 4.2 4.3 3.9 3.3 3.1 3.3 2.4 0.4 0.7 0.5 0.0 0.5 0.6 0.7 1.2 1.5 1.7 1.3 1.4 1.8 2.0 2.3 2.7 2.9 3.3 3.8 4.2 4.8
2.5 1.7 2.0 2.4 4.5 5.4 6.8 6.0 5.1 4.5 4.4 3.5 3.3 3.2 3.0 4.3 4.4 3.9 3.5 3.5 2.3 2.5 1.4 0.8 0.8 0.1 0.1 0.2 0.4 0.8 1.1 1.4 1.5 1.0 1.6 2.0 2.2 2.8 3.1 3.2 3.7 3.8 4.1
2.7 2.5 1.8 1.6 2.5 4.7 6.0 5.7 4.8 5.1 4.6 3.1 4.3 4.3 3.7 3.3 3.9 3.9 2.5 2.9 2.0 1.6 2.2 1.6 1.9 0.7 0.4 0.0 0.2 0.3 0.5 1.0 0.8 1.2 1.3 1.8 1.8 2.6 3.2 3.6 3.6 3.9 3.6
2.5 2.0 1.7 2.1 1.9 2.5 4.5 6.0 4.2 3.4 4.6 5.6 4.8 4.8 4.7 4.2 3.4 4.0 1.6 2.4 3.1 2.2 1.5 1.8 1.6 1.6 0.7 0.3 0.2 0.8 0.3 0.9 1.4 1.3 1.0 1.6 1.6 2.0 2.0 2.8 3.6 3.8 3.5
1.7 1.3 1.4 1.2 1.4 1.5 2.9 4.5 5.6 5.7 4.8 5.5 5.8 5.1 4.5 4.3 3.1 2.6 2.6 2.3 2.4 3.2 2.0 1.3 1.5 1.8 1.3 0.5 0.1 0.5 1.1 0.4 0.9 0.8 0.9 1.6 1.6 2.6 2.3 2.6 3.1 3.1 3.5
2.4 2.4 1.6 1.4 1.3 1.0 1.4 2.5 5.4 5.2 5.3 5.3 4.9 4.7 4.5 4.6 4.0 3.7 3.1 3.1 2.7 2.8 2.5 2.2 1.4 1.5 1.0 1.0 0.4 1.0 1.0 0.2 0.3 0.2 0.2 0.8 1.2 1.5 2.6 2.6 2.5 2.7 3.0
2.7 2.1 1.8 0.9 1.1 1.2 0.9 0.9 1.9 4.2 5.1 5.3 5.1 4.9 4.4 4.1 3.7 3.4 1.6 1.8 1.8 2.1 2.1 1.8 1.8 1.3 1.3 1.3 1.1 1.5 0.5 1.1 1.3 -0.8 -0.6 0.3 0.2 0.9 1.9 2.5 2.7 2.6 2.5
2.7 2.5 1.9 0.9 1.4 1.2 0.5 0.5 0.9 1.8 3.8 5.8 4.8 4.7 4.7 4.3 3.9 3.7 3.4 2.4 1.3 1.2 1.2 1.1 0.8 1.1 0.7 1.5 1.9 2.4 2.1 2.2 1.6 1.0 1.0 0.2 0.5 1.0 2.1 2.6 2.8 2.6 3.3
2.7 2.7 1.6 0.7 0.8 0.8 0.5 0.2 0.3 1.9 3.2 5.0 5.0 4.3 4.2 4.3 3.9 3.4 2.8 2.3 1.9 1.7 0.7 1.2 1.3 1.2 0.3 1.1 1.9 2.2 1.4 3.1 2.3 1.7 1.3 1.5 1.0 1.1 1.7 2.1 2.0 2.2 2.7
2.4 2.0 1.4 0.9 0.0 0.4 0.1 0.3 1.3 1.7 3.4 4.4 4.3 3.8 3.5 3.4 2.8 2.9 2.8 2.5 2.5 2.1 2.0 1.3 0.4 -0.1 -0.4 2.2 2.7 2.2 1.9 1.8 2.2 1.7 1.7 1.3 1.5 1.7 1.6 1.5 1.6 1.3 1.4
1.8 1.7 1.3 1.1 1.2 0.4 0.6 0.9 0.8 2.0 2.7 3.3 2.8 2.5 2.6 2.7 2.6 2.5 2.0 1.9 2.1 2.4 1.4 1.1 1.0 1.7 1.6 0.8 1.2 1.0 1.1 1.6 2.5 1.5 2.0 2.8 2.3 2.7 2.4 1.9 1.7 1.9 1.7
2.5 2.2 1.8 1.2 1.3 1.9 2.3 1.4 1.4 1.0 1.2 1.4 1.7 1.8 1.6 2.2 2.5 2.2 1.8 1.9 2.0 1.7 2.0 1.6 1.1 0.9 1.4 1.9 2.2 1.9 2.1 1.6 0.6 1.9 2.3 2.5 3.1 3.8 3.3 2.4 2.2 2.8 1.6
3.0 2.6 2.1 2.2 2.4 2.1 2.3 1.6 1.0 0.6 0.8 1.2 1.3 1.1 1.1 1.4 1.3 1.6 1.3 1.4 1.3 1.9 1.6 1.0 0.9 1.2 1.6 2.8 3.4 3.0 2.7 3.5 3.3 3.6 3.1 2.1 3.2 3.5 3.5 2.8 2.8 3.9 3.4
3.4 3.2 2.7 2.3 2.2 2.0 1.4 1.4 1.4 1.2 1.0 0.9 0.6 0.6 0.7 0.9 1.1 1.9 1.8 1.8 1.3 1.9 2.1 1.7 1.4 1.1 1.2 2.8 4.0 4.7 4.2 4.2 4.9 4.1 3.4 2.5 3.4 3.7 4.2 3.8 4.2 4.4 2.6
4.1 3.5 2.8 2.6 2.1 2.1 1.8 1.7 1.9 1.8 1.3 1.0 0.9 0.9 1.1 1.0 0.9 1.2 1.7 2.4 2.9 3.1 2.8 2.9 3.0 2.3 2.2 3.0 4.6 4.7 5.0 5.3 4.9 4.1 3.7 3.9 4.5 4.2 4.0 4.3 5.1 3.9 3.2
4.2 3.2 3.0 3.4 3.2 3.1 2.1 1.6 1.9 2.9 2.4 1.8 1.6 1.7 1.6 1.4 1.4 1.2 1.7 2.1 2.0 2.8 3.2 3.7 3.5 2.7 2.5 2.8 4.1 4.7 4.6 3.9 2.5 2.4 3.2 3.7 4.3 4.4 4.0 4.4 4.7 3.6 3.5
4.0 3.5 3.6 3.7 3.7 2.9 2.0 1.9 2.3 2.9 2.8 2.5 2.6 2.8 2.5 2.5 2.3 2.4 2.7 3.5 3.8 3.9 3.9 3.6 3.7 3.5 3.9 4.1 4.1 4.8 5.0 4.6 3.6 2.9 3.3 3.5 3.8 4.0 3.9 4.3 4.4 4.1 4.0
Wind_Speed
8 10 10 11 12 14 14 15 15 13 10 9 9 6 6 6 5 9 12 13 13 14 13 11 11 11 8 8 8 6 8 4 6 6 4 4 3 4 4 4 4 4 4
7 11 12 11 14 13 14 14 14 14 11 9 8 5 6 4 5 9 11 13 14 15 14 13 9 10 7 9 9 9 5 3 6 3 3 4 2 2 3 3 3 4 4
12 12 13 13 12 14 14 15 14 12 9 8 6 6 6 5 4 5 6 9 16 16 14 14 12 10 8 7 9 8 7 5 5 3 2 3 3 3 1 3 3 3 4
10 12 15 15 15 13 13 15 15 16 11 8 9 13 11 7 6 8 7 9 16 15 14 13 13 12 9 8 8 7 6 5 7 3 2 1 2 3 4 2 3 3 3
11 14 15 16 16 15 15 12 11 12 17 14 11 9 8 8 5 5 10 10 10 15 15 15 14 10 9 8 9 9 7 5 5 4 3 2 1 2 2 3 4 3 3
10 12 13 14 14 13 13 13 13 11 12 16 16 13 12 11 8 8 8 8 8 8 13 15 14 14 11 10 9 8 10 8 5 5 5 4 3 3 3 2 2 3 3
7 11 13 15 13 14 15 14 14 13 13 12 17 16 14 13 13 12 10 12 9 7 12 12 11 9 13 14 13 10 9 9 8 9 6 4 3 3 3 3 3 3 2
5 9 13 14 16 17 18 16 14 13 12 14 17 16 16 10 9 10 9 10 11 11 12 13 13 13 14 13 13 8 8 9 7 9 6 5 5 5 4 4 5 3 2
4 5 9 11 15 15 18 18 17 14 15 16 13 15 15 15 13 12 10 9 11 10 12 12 13 11 13 13 11 8 10 9 9 9 8 6 5 5 4 4 4 4 5
5 5 5 10 9 13 15 17 17 18 16 18 17 17 17 17 15 12 13 12 9 10 14 13 12 12 10 11 12 9 9 10 8 7 9 7 6 6 5 5 5 3 3
5 5 5 6 7 8 12 13 14 16 15 14 15 14 14 15 15 13 11 13 12 11 12 14 15 14 14 12 12 12 12 12 10 9 11 10 8 6 6 5 5 4 4
6 6 5 4 5 8 11 15 14 14 14 14 15 16 15 14 14 13 13 13 13 13 12 12 13 14 14 13 13 13 12 14 13 12 11 10 7 9 8 7 7 6 5
7 4 5 4 4 6 8 10 14 16 15 14 13 14 15 14 15 14 13 13 13 12 13 12 13 13 14 14 13 13 13 12 12 12 12 12 11 10 8 7 7 6 5
8 6 4 5 4 5 6 8 8 10 12 14 14 14 14 15 14 13 13 13 13 12 12 13 14 14 13 13 14 13 13 13 12 11 11 11 11 11 11 8 9 7 7
7 7 6 3 6 5 5 5 5 7 9 11 12 12 13 13 12 12 13 13 13 12 13 13 12 12 12 10 13 13 12 11 11 10 10 10 12 13 12 7 9 9 7
10 7 5 5 6 6 4 5 4 5 9 10 10 10 9 10 11 13 12 12 13 13 13 13 14 14 11 17 20 17 11 11 11 11 10 9 13 13 16 13 15 13 10
8 8 5 4 2 4 3 4 4 2 6 8 7 7 9 10 10 10 11 12 13 10 13 12 12 13 11 17 19 15 7 9 9 9 9 8 7 11 10 13 15 14 14
6 4 3 4 2 2 1 0 1 3 5 5 4 5 7 9 8 8 8 9 9 11 12 9 6 5 8 19 20 19 8 6 6 7 8 8 9 10 11 10 10 9 8
1 2 2 2 3 2 2 4 4 2 3 2 3 3 5 5 6 7 7 5 7 5 6 7 13 12 9 16 17 15 8 7 6 5 7 9 9 14 17 11 10 8 5
3 4 5 4 5 5 3 6 5 4 4 3 3 4 4 4 5 4 4 3 3 4 5 6 8 12 13 29 29 20 10 9 5 5 3 12 10 18 21 11 11 10 9
7 6 8 9 6 5 4 8 7 7 4 4 4 4 4 4 3 4 3 5 6 7 7 7 6 7 7 12 19 18 8 9 8 8 6 6 16 18 19 16 11 10 11
9 9 11 11 10 9 7 8 8 4 4 5 5 5 4 3 3 4 3 5 6 7 6 6 4 5 8 15 18 20 14 12 8 9 8 9 19 19 19 16 16 15 15
10 9 10 11 11 11 10 10 8 5 5 6 6 5 5 5 4 4 4 3 4 4 3 3 3 2 3 4 15 18 19 18 10 8 12 16 20 19 16 16 18 17 7
10 10 12 12 12 11 11 10 9 6 7 7 6 5 5 6 5 4 3 3 3 3 3 4 3 3 3 3 6 9 10 14 8 11 9 12 14 15 12 12 12 8 8
10 12 12 11 11 10 11 11 10 7 7 7 6 5 4 5 4 4 3 2 1 1 2 3 4 5 5 6 8 9 8 8 9 10 6 6 7 8 7 7 8 7 7
12 13 12 13 12 13 15 14 13 11 10 10 7 6 4 4 4 3 3 6 2 1 3 3 2 1 0 9 14 12 13 15 20 4 5 7 8 10 9 8 8 7 9
Wind_Direction
241 180 187 174 170 173 168 178 167 170 159 159 158 164 170 167 168 175 174 173 172 167 162 156 158 162 157 159 153 133 140 132 146 125 109 82 76 87 81 85 94 88 76
212 172 171 182 177 179 165 174 171 168 176 177 181 162 158 171 169 174 178 178 176 173 168 166 169 167 154 157 162 154 144 126 178 145 136 158 150 107 66 75 78 83 79
204 190 180 185 175 173 170 162 157 165 176 174 148 112 103 99 137 183 185 187 182 180 174 173 170 169 168 167 171 167 162 152 187 208 145 152 181 149 96 67 59 80 81
204 202 186 191 179 186 173 171 171 159 173 165 182 170 174 165 186 186 184 183 184 181 178 176 178 176 177 171 178 177 173 155 175 177 194 84 136 164 164 144 104 84 90
209 204 193 186 193 178 170 157 169 180 167 173 181 194 185 188 150 154 171 180 185 185 181 180 183 182 180 180 177 174 185 184 173 170 158 160 137 121 143 163 163 117 80
228 222 205 194 183 177 176 170 174 186 182 172 174 196 200 185 159 164 175 182 183 183 187 182 188 189 184 180 183 182 186 186 185 181 176 170 172 180 159 128 148 157 97
235 220 210 200 187 187 185 185 186 194 177 197 178 194 205 202 191 176 183 176 182 190 194 184 189 191 189 185 180 181 184 187 185 184 190 181 175 143 135 126 133 149 149
244 219 215 200 191 191 195 194 190 193 188 184 197 195 201 202 200 192 192 189 190 195 187 186 187 186 187 186 185 186 185 183 187 185 183 182 182 174 163 155 154 139 149
355 260 228 211 196 191 191 193 195 197 187 182 196 203 198 207 209 203 202 203 196 182 177 185 185 180 186 186 184 189 189 186 184 186 180 180 180 180 171 160 171 156 169
7 355 264 231 201 198 197 200 201 200 194 198 196 200 206 209 212 202 199 189 202 191 169 176 185 178 181 187 186 192 190 188 189 181 185 180 176 178 173 168 166 162 147
317 325 314 265 229 200 202 198 200 202 207 198 204 212 206 215 213 209 196 197 179 189 184 181 186 183 181 187 189 190 186 192 190 184 186 188 174 177 174 163 159 161 153
289 301 291 281 243 218 196 202 204 203 203 207 204 206 209 206 211 206 197 191 192 183 187 184 196 187 184 182 189 188 189 192 191 188 185 187 176 178 176 173 167 170 159
319 302 305 288 256 239 223 204 202 204 200 200 204 207 208 204 205 204 188 187 196 199 183 181 185 196 188 186 191 195 183 190 194 190 182 183 181 179 180 182 173 169 159
301 297 297 277 264 248 229 221 218 200 197 194 201 202 201 203 201 198 197 186 187 194 192 187 190 199 195 191 182 187 195 182 189 184 184 177 182 184 181 177 178 170 160
297 297 302 250 265 246 248 246 210 187 193 196 200 209 206 203 198 197 195 190 190 194 194 197 196 193 184 188 182 190 195 185 188 183 178 179 181 179 184 174 183 172 167
287 293 300 306 239 240 242 267 236 200 184 199 204 203 200 198 192 192 183 190 192 196 191 197 195 190 193 188 184 183 181 184 195 181 178 177 174 175 180 184 180 178 174
287 304 328 343 312 236 245 262 257 228 203 197 189 183 185 195 201 197 193 195 195 188 203 197 191 198 187 184 178 176 177 178 190 180 181 168 174 164 170 182 186 189 191
287 325 353 334 36 306 194 216 236 228 213 206 171 176 180 189 191 193 189 191 186 187 179 178 188 198 179 181 176 172 151 171 177 184 175 169 167 173 163 156 167 180 183
62 49 22 346 5 31 83 104 103 109 156 113 131 151 158 159 159 176 180 170 178 190 207 189 178 164 141 172 168 157 149 143 178 164 178 169 175 178 162 156 160 162 172
61 61 60 57 40 4 45 86 78 78 66 73 106 110 114 133 147 152 143 133 154 175 142 181 189 189 183 177 170 161 156 159 180 142 186 192 174 179 171 164 165 172 177
71 54 55 54 26 25 55 67 66 49 13 44 66 73 83 114 137 136 130 145 150 147 159 165 149 138 170 186 168 159 175 170 163 171 180 190 188 183 177 169 175 185 160
53 45 65 51 32 29 43 47 48 25 42 59 63 58 55 60 85 118 109 132 140 149 150 137 140 156 165 171 173 172 164 171 165 191 190 186 183 182 180 176 177 169 154
58 53 57 61 45 31 35 39 4 35 65 64 58 55 55 57 60 88 96 97 112 124 152 154 152 145 136 178 180 186 181 181 189 182 184 173 180 181 181 179 177 170 165
54 64 58 45 44 29 32 37 16 23 70 72 56 45 47 44 41 59 84 120 143 152 151 152 164 172 163 161 181 179 183 187 171 157 165 175 178 178 179 173 182 175 177
54 60 58 47 40 31 35 31 25 26 61 66 68 58 57 60 54 45 41 56 8 150 170 178 158 156 181 196 181 178 183 177 162 141 144 163 169 175 176 176 180 173 172
56 57 55 50 39 35 34 28 25 32 49 51 44 47 58 58 60 66 54 38 57 114 116 134 136 205 184 177 195 197 181 166 155 133 168 176 183 188 183 180 179 177 178